Time,TemperatureF,DewpointF,PressureIn,WindDirection,WindDirectionDegrees,WindSpeedMPH,WindSpeedGustMPH,Humidity,HourlyPrecipIn,Conditions,Clouds,dailyrainin,SoftwareType,DateUTC
2013-09-23 00:07:00,70.5,59.0,29.81,WNW,293,2.0,2.0,67,0.00,,,0.00,meteohub,2013-09-23 05:07:00,
2013-09-23 00:12:00,70.3,59.4,29.80,North,0,2.0,2.0,68,0.00,,,0.00,meteohub,2013-09-23 05:12:00,
2013-09-23 00:17:00,70.3,59.4,29.81,West,270,2.0,2.0,68,0.00,,,0.00,meteohub,2013-09-23 05:17:00,
2013-09-23 00:22:00,70.3,59.4,29.81,NW,315,1.0,3.0,68,0.00,,,0.00,meteohub,2013-09-23 05:22:00,
2013-09-23 00:27:00,70.2,59.2,29.81,NW,315,2.0,3.0,68,0.00,,,0.00,meteohub,2013-09-23 05:27:00,
2013-09-23 00:32:00,70.0,59.0,29.81,NW,315,1.0,3.0,68,0.00,,,0.00,meteohub,2013-09-23 05:32:00,
2013-09-23 00:37:00,70.0,59.0,29.81,NW,315,1.0,3.0,68,0.00,,,0.00,meteohub,2013-09-23 05:37:00,
2013-09-23 00:42:00,69.8,58.8,29.81,NW,315,1.0,2.0,68,0.00,,,0.00,meteohub,2013-09-23 05:42:00,
2013-09-23 00:47:00,69.6,58.6,29.81,NW,315,2.0,2.0,68,0.00,,,0.00,meteohub,2013-09-23 05:47:00,
2013-09-23 00:52:00,69.6,58.6,29.81,NW,315,0.0,2.0,68,0.00,,,0.00,meteohub,2013-09-23 05:52:00,
2013-09-23 00:57:00,69.4,58.8,29.82,NW,315,2.0,2.0,69,0.00,,,0.00,meteohub,2013-09-23 05:57:00,
2013-09-23 01:02:00,69.3,58.6,29.81,NW,315,1.0,2.0,69,0.00,,,0.00,meteohub,2013-09-23 06:02:00,
2013-09-23 01:07:00,69.3,58.6,29.81,NW,315,1.0,2.0,69,0.00,,,0.00,meteohub,2013-09-23 06:07:00,
2013-09-23 01:12:00,68.9,58.6,29.82,NW,315,0.0,2.0,70,0.00,,,0.00,meteohub,2013-09-23 06:12:00,
2013-09-23 01:17:00,68.7,58.5,29.82,NW,315,0.0,2.0,70,0.00,,,0.00,meteohub,2013-09-23 06:17:00,
2013-09-23 01:22:00,68.7,58.5,29.82,NW,315,0.0,2.0,70,0.00,,,0.00,meteohub,2013-09-23 06:22:00,
2013-09-23 01:27:00,68.5,58.8,29.82,NW,315,0.0,1.0,71,0.00,,,0.00,meteohub,2013-09-23 06:27:00,
2013-09-23 01:32:00,68.4,58.6,29.82,North,0,1.0,0.0,71,0.00,,,0.00,meteohub,2013-09-23 06:32:00,
2013-09-23 01:37:00,68.4,58.6,29.82,North,0,0.0,2.0,71,0.00,,,0.00,meteohub,2013-09-23 06:37:00,
2013-09-23 01:42:00,68.2,58.5,29.82,North,0,2.0,2.0,71,0.00,,,0.00,meteohub,2013-09-23 06:42:00,
2013-09-23 01:47:00,68.2,58.8,29.82,NW,315,2.0,2.0,72,0.00,,,0.00,meteohub,2013-09-23 06:47:00,
2013-09-23 01:52:00,68.0,58.6,29.82,NW,315,1.0,2.0,72,0.00,,,0.00,meteohub,2013-09-23 06:52:00,
2013-09-23 01:57:00,68.2,58.8,29.82,NW,315,0.0,2.0,72,0.00,,,0.00,meteohub,2013-09-23 06:57:00,
2013-09-23 02:02:00,68.0,58.6,29.82,NW,315,1.0,2.0,72,0.00,,,0.00,meteohub,2013-09-23 07:02:00,
2013-09-23 02:07:00,68.0,58.6,29.82,NW,315,1.0,2.0,72,0.00,,,0.00,meteohub,2013-09-23 07:07:00,
2013-09-23 02:12:00,67.8,58.5,29.81,NW,315,2.0,2.0,72,0.00,,,0.00,meteohub,2013-09-23 07:12:00,
2013-09-23 02:17:00,67.8,58.5,29.81,North,0,2.0,2.0,72,0.00,,,0.00,meteohub,2013-09-23 07:17:00,
2013-09-23 02:22:00,67.8,58.5,29.81,NW,315,2.0,2.0,72,0.00,,,0.00,meteohub,2013-09-23 07:22:00,
2013-09-23 02:27:00,67.6,58.3,29.82,North,0,2.0,4.0,72,0.00,,,0.00,meteohub,2013-09-23 07:27:00,
2013-09-23 02:32:00,67.6,58.3,29.81,NW,315,2.0,4.0,72,0.00,,,0.00,meteohub,2013-09-23 07:32:00,
2013-09-23 02:37:00,67.8,58.8,29.81,North,0,2.0,4.0,73,0.00,,,0.00,meteohub,2013-09-23 07:37:00,
2013-09-23 02:42:00,67.5,58.5,29.81,NW,315,4.0,4.0,73,0.00,,,0.00,meteohub,2013-09-23 07:42:00,
2013-09-23 02:47:00,67.5,58.5,29.81,NW,315,4.0,4.0,73,0.00,,,0.00,meteohub,2013-09-23 07:47:00,
2013-09-23 02:52:00,67.5,58.5,29.81,West,270,2.0,4.0,73,0.00,,,0.00,meteohub,2013-09-23 07:52:00,
2013-09-23 02:57:00,67.5,58.5,29.81,West,270,2.0,4.0,73,0.00,,,0.00,meteohub,2013-09-23 07:57:00,
2013-09-23 03:02:00,67.5,58.5,29.81,North,0,3.0,4.0,73,0.00,,,0.00,meteohub,2013-09-23 08:02:00,
2013-09-23 03:07:00,67.5,58.5,29.82,North,0,3.0,3.0,73,0.00,,,0.00,meteohub,2013-09-23 08:07:00,
2013-09-23 03:17:00,67.3,58.3,29.81,NW,315,2.0,3.0,73,0.00,,,0.00,meteohub,2013-09-23 08:17:00,
2013-09-23 03:22:00,67.1,58.1,29.81,NW,315,3.0,3.0,73,0.00,,,0.00,meteohub,2013-09-23 08:22:00,
2013-09-23 03:27:00,67.1,58.1,29.81,NW,315,3.0,3.0,73,0.00,,,0.00,meteohub,2013-09-23 08:27:00,
2013-09-23 03:32:00,66.9,58.3,29.81,West,270,1.0,3.0,74,0.00,,,0.00,meteohub,2013-09-23 08:32:00,
2013-09-23 03:37:00,66.9,58.3,29.81,NW,315,2.0,4.0,74,0.00,,,0.00,meteohub,2013-09-23 08:37:00,
2013-09-23 03:42:00,66.9,58.3,29.81,NW,315,4.0,5.0,74,0.00,,,0.00,meteohub,2013-09-23 08:42:00,
2013-09-23 03:47:00,66.9,58.3,29.81,North,0,2.0,5.0,74,0.00,,,0.00,meteohub,2013-09-23 08:47:00,
2013-09-23 03:52:00,66.9,58.3,29.81,NE,45,3.0,5.0,74,0.00,,,0.00,meteohub,2013-09-23 08:52:00,
2013-09-23 03:57:00,66.9,57.9,29.80,West,270,2.0,4.0,73,0.00,,,0.00,meteohub,2013-09-23 08:57:00,
2013-09-23 04:02:00,66.9,57.9,29.81,NW,315,4.0,4.0,73,0.00,,,0.00,meteohub,2013-09-23 09:02:00,
2013-09-23 04:07:00,66.9,57.9,29.81,NW,315,4.0,4.0,73,0.00,,,0.00,meteohub,2013-09-23 09:07:00,
2013-09-23 04:12:00,67.1,58.1,29.80,North,0,3.0,4.0,73,0.00,,,0.00,meteohub,2013-09-23 09:12:00,
2013-09-23 04:17:00,67.3,57.9,29.80,NNW,338,4.0,5.0,72,0.00,,,0.00,meteohub,2013-09-23 09:17:00,
2013-09-23 04:22:00,67.1,57.7,29.81,NNE,23,5.0,5.0,72,0.00,,,0.00,meteohub,2013-09-23 09:22:00,
2013-09-23 04:27:00,67.1,57.7,29.80,North,0,6.0,6.0,72,0.00,,,0.00,meteohub,2013-09-23 09:27:00,
2013-09-23 04:32:00,67.1,57.7,29.80,North,0,6.0,6.0,72,0.00,,,0.00,meteohub,2013-09-23 09:32:00,
2013-09-23 04:37:00,67.1,57.7,29.80,West,270,2.0,6.0,72,0.00,,,0.00,meteohub,2013-09-23 09:37:00,
2013-09-23 04:42:00,67.1,57.7,29.80,North,0,3.0,6.0,72,0.00,,,0.00,meteohub,2013-09-23 09:42:00,
2013-09-23 04:47:00,67.3,57.9,29.80,NE,45,4.0,6.0,72,0.00,,,0.00,meteohub,2013-09-23 09:47:00,
2013-09-23 04:52:00,67.1,57.4,29.80,NNE,23,5.0,6.0,71,0.00,,,0.00,meteohub,2013-09-23 09:52:00,
2013-09-23 04:57:00,67.3,57.6,29.80,NE,45,5.0,7.0,71,0.00,,,0.00,meteohub,2013-09-23 09:57:00,
2013-09-23 05:02:00,67.3,57.6,29.80,NW,315,3.0,7.0,71,0.00,,,0.00,meteohub,2013-09-23 10:02:00,
2013-09-23 05:07:00,67.3,57.6,29.81,NW,315,3.0,7.0,71,0.00,,,0.00,meteohub,2013-09-23 10:07:00,
2013-09-23 05:12:00,67.1,57.0,29.81,NNE,23,4.0,7.0,70,0.00,,,0.00,meteohub,2013-09-23 10:12:00,
2013-09-23 05:17:00,67.1,57.0,29.81,NE,45,5.0,5.0,70,0.00,,,0.00,meteohub,2013-09-23 10:17:00,
2013-09-23 05:22:00,67.3,57.2,29.81,North,0,2.0,8.0,70,0.00,,,0.00,meteohub,2013-09-23 10:22:00,
2013-09-23 05:27:00,67.1,57.0,29.81,North,0,4.0,8.0,70,0.00,,,0.00,meteohub,2013-09-23 10:27:00,
2013-09-23 05:32:00,67.1,57.0,29.81,NW,315,4.0,8.0,70,0.00,,,0.00,meteohub,2013-09-23 10:32:00,
2013-09-23 05:42:00,67.3,57.2,29.81,NE,45,3.0,4.0,70,0.00,,,0.00,meteohub,2013-09-23 10:42:00,
2013-09-23 05:47:00,67.1,57.0,29.81,North,0,2.0,4.0,70,0.00,,,0.00,meteohub,2013-09-23 10:47:00,
2013-09-23 05:52:00,67.1,56.7,29.81,North,0,4.0,5.0,69,0.00,,,0.00,meteohub,2013-09-23 10:52:00,
2013-09-23 05:57:00,67.1,57.0,29.81,NE,45,4.0,5.0,70,0.00,,,0.00,meteohub,2013-09-23 10:57:00,
2013-09-23 06:02:00,67.1,56.7,29.81,NW,315,2.0,7.0,69,0.00,,,0.00,meteohub,2013-09-23 11:02:00,
2013-09-23 06:12:00,67.1,56.7,29.82,East,90,4.0,7.0,69,0.00,,,0.00,meteohub,2013-09-23 11:12:00,
2013-09-23 06:17:00,67.1,56.7,29.82,North,0,2.0,5.0,69,0.00,,,0.00,meteohub,2013-09-23 11:17:00,
2013-09-23 06:22:00,66.9,56.5,29.82,NE,45,4.0,5.0,69,0.00,,,0.00,meteohub,2013-09-23 11:22:00,
2013-09-23 06:27:00,66.9,56.5,29.82,NW,315,2.0,5.0,69,0.00,,,0.00,meteohub,2013-09-23 11:27:00,
2013-09-23 06:32:00,66.9,56.8,29.82,NW,315,1.0,4.0,70,0.00,,,0.00,meteohub,2013-09-23 11:32:00,
2013-09-23 06:37:00,66.9,56.8,29.82,North,0,4.0,4.0,70,0.00,,,0.00,meteohub,2013-09-23 11:37:00,
2013-09-23 06:42:00,66.7,56.3,29.83,North,0,3.0,4.0,69,0.00,,,0.00,meteohub,2013-09-23 11:42:00,
2013-09-23 06:47:00,66.7,56.7,29.83,NW,315,2.0,4.0,70,0.00,,,0.00,meteohub,2013-09-23 11:47:00,
2013-09-23 06:52:00,66.7,56.7,29.83,North,0,2.0,4.0,70,0.00,,,0.00,meteohub,2013-09-23 11:52:00,
2013-09-23 06:57:00,66.6,56.5,29.83,NW,315,3.0,4.0,70,0.00,,,0.00,meteohub,2013-09-23 11:57:00,
2013-09-23 07:02:00,66.6,56.5,29.83,NE,45,4.0,4.0,70,0.00,,,0.00,meteohub,2013-09-23 12:02:00,
2013-09-23 07:07:00,66.6,56.5,29.83,NE,45,4.0,4.0,70,0.00,,,0.00,meteohub,2013-09-23 12:07:00,
2013-09-23 07:12:00,66.9,56.8,29.83,NW,315,4.0,4.0,70,0.00,,,0.00,meteohub,2013-09-23 12:12:00,
2013-09-23 07:17:00,66.9,56.8,29.83,NNE,23,7.0,8.0,70,0.00,,,0.00,meteohub,2013-09-23 12:17:00,
2013-09-23 07:22:00,67.1,56.7,29.83,North,0,6.0,8.0,69,0.00,,,0.00,meteohub,2013-09-23 12:22:00,
2013-09-23 07:27:00,67.3,56.8,29.83,NE,45,2.0,7.0,69,0.00,,,0.00,meteohub,2013-09-23 12:27:00,
2013-09-23 07:32:00,67.3,56.8,29.83,NE,45,2.0,7.0,69,0.00,,,0.00,meteohub,2013-09-23 12:32:00,
2013-09-23 07:37:00,67.5,57.0,29.83,NE,45,3.0,7.0,69,0.00,,,0.00,meteohub,2013-09-23 12:37:00,
2013-09-23 07:42:00,67.8,57.2,29.84,NNE,23,2.0,7.0,69,0.00,,,0.00,meteohub,2013-09-23 12:42:00,
2013-09-23 07:47:00,67.8,57.2,29.83,NE,45,5.0,5.0,69,0.00,,,0.00,meteohub,2013-09-23 12:47:00,
2013-09-23 07:52:00,68.0,57.4,29.83,NE,45,4.0,5.0,69,0.00,,,0.00,meteohub,2013-09-23 12:52:00,
2013-09-23 07:57:00,68.4,57.4,29.83,NE,45,3.0,5.0,68,0.00,,,0.00,meteohub,2013-09-23 12:57:00,
2013-09-23 08:02:00,68.5,57.6,29.83,NE,45,4.0,8.0,68,0.00,,,0.00,meteohub,2013-09-23 13:02:00,
2013-09-23 08:12:00,68.9,57.6,29.83,NE,45,4.0,8.0,67,0.00,,,0.00,meteohub,2013-09-23 13:12:00,
2013-09-23 08:17:00,69.1,57.7,29.83,East,90,8.0,8.0,67,0.00,,,0.00,meteohub,2013-09-23 13:17:00,
2013-09-23 08:27:00,70.0,58.1,29.83,East,90,4.0,8.0,66,0.00,,,0.00,meteohub,2013-09-23 13:27:00,
2013-09-23 08:32:00,70.5,58.6,29.83,North,0,6.0,8.0,66,0.00,,,0.00,meteohub,2013-09-23 13:32:00,
2013-09-23 08:37:00,70.7,58.3,29.83,East,90,6.0,8.0,65,0.00,,,0.00,meteohub,2013-09-23 13:37:00,
2013-09-23 08:42:00,70.9,58.5,29.83,NE,45,4.0,8.0,65,0.00,,,0.00,meteohub,2013-09-23 13:42:00,
2013-09-23 08:47:00,71.8,59.4,29.83,East,90,2.0,8.0,65,0.00,,,0.00,meteohub,2013-09-23 13:47:00,
2013-09-23 08:52:00,72.3,59.5,29.83,East,90,5.0,8.0,64,0.00,,,0.00,meteohub,2013-09-23 13:52:00,
2013-09-23 08:57:00,72.7,59.7,29.83,NE,45,4.0,8.0,64,0.00,,,0.00,meteohub,2013-09-23 13:57:00,
2013-09-23 09:02:00,73.0,60.1,29.83,NE,45,4.0,7.0,64,0.00,,,0.00,meteohub,2013-09-23 14:02:00,
2013-09-23 09:07:00,73.0,60.1,29.83,NE,45,4.0,7.0,64,0.00,,,0.00,meteohub,2013-09-23 14:07:00,
2013-09-23 09:12:00,73.9,60.6,29.83,NE,45,5.0,5.0,63,0.00,,,0.00,meteohub,2013-09-23 14:12:00,
2013-09-23 09:17:00,74.3,60.8,29.83,North,0,4.0,8.0,63,0.00,,,0.00,meteohub,2013-09-23 14:17:00,
2013-09-23 09:22:00,74.7,60.8,29.83,NE,45,9.0,9.0,62,0.00,,,0.00,meteohub,2013-09-23 14:22:00,
2013-09-23 09:27:00,75.2,61.3,29.83,North,0,5.0,9.0,62,0.00,,,0.00,meteohub,2013-09-23 14:27:00,
2013-09-23 09:32:00,75.6,61.7,29.83,North,0,4.0,9.0,62,0.00,,,0.00,meteohub,2013-09-23 14:32:00,
2013-09-23 09:37:00,76.1,62.1,29.83,NW,315,6.0,9.0,62,0.00,,,0.00,meteohub,2013-09-23 14:37:00,
2013-09-23 09:42:00,76.6,62.6,29.83,East,90,4.0,6.0,62,0.00,,,0.00,meteohub,2013-09-23 14:42:00,
2013-09-23 09:47:00,77.0,63.0,29.84,East,90,7.0,7.0,62,0.00,,,0.00,meteohub,2013-09-23 14:47:00,
2013-09-23 09:52:00,77.4,63.3,29.83,East,90,6.0,9.0,62,0.00,,,0.00,meteohub,2013-09-23 14:52:00,
2013-09-23 09:57:00,77.7,64.0,29.83,East,90,3.0,9.0,63,0.00,,,0.00,meteohub,2013-09-23 14:57:00,
2013-09-23 10:02:00,78.3,64.2,29.83,NE,45,4.0,9.0,62,0.00,,,0.00,meteohub,2013-09-23 15:02:00,
2013-09-23 10:07:00,78.3,64.2,29.84,NE,45,4.0,6.0,62,0.00,,,0.00,meteohub,2013-09-23 15:07:00,
2013-09-23 10:12:00,79.2,64.9,29.84,East,90,5.0,8.0,62,0.00,,,0.00,meteohub,2013-09-23 15:12:00,
2013-09-23 10:17:00,79.9,65.7,29.83,SE,135,6.0,8.0,62,0.00,,,0.00,meteohub,2013-09-23 15:17:00,
2013-09-23 10:22:00,80.2,66.0,29.83,West,270,4.0,8.0,62,0.00,,,0.00,meteohub,2013-09-23 15:22:00,
2013-09-23 10:27:00,80.6,65.8,29.83,North,0,5.0,7.0,61,0.00,,,0.00,meteohub,2013-09-23 15:27:00,
2013-09-23 10:32:00,80.6,65.8,29.83,NE,45,5.0,7.0,61,0.00,,,0.00,meteohub,2013-09-23 15:32:00,
2013-09-23 10:37:00,81.1,66.9,29.83,North,0,2.0,8.0,62,0.00,,,0.00,meteohub,2013-09-23 15:37:00,
2013-09-23 10:42:00,81.3,66.6,29.83,East,90,5.0,9.0,61,0.00,,,0.00,meteohub,2013-09-23 15:42:00,
2013-09-23 10:47:00,81.7,67.5,29.84,East,90,7.0,9.0,62,0.00,,,0.00,meteohub,2013-09-23 15:47:00,
2013-09-23 10:52:00,82.6,68.2,29.84,East,90,4.0,9.0,62,0.00,,,0.00,meteohub,2013-09-23 15:52:00,
2013-09-23 10:57:00,82.8,68.4,29.83,East,90,4.0,8.0,62,0.00,,,0.00,meteohub,2013-09-23 15:57:00,
2013-09-23 11:02:00,82.6,67.8,29.83,ESE,113,6.0,8.0,61,0.00,,,0.00,meteohub,2013-09-23 16:02:00,
2013-09-23 11:12:00,83.5,68.5,29.83,East,90,4.0,8.0,61,0.00,,,0.00,meteohub,2013-09-23 16:12:00,
2013-09-23 11:17:00,84.0,69.1,29.83,NE,45,7.0,7.0,61,0.00,,,0.00,meteohub,2013-09-23 16:17:00,
2013-09-23 11:22:00,84.0,69.1,29.83,South,180,2.0,8.0,61,0.00,,,0.00,meteohub,2013-09-23 16:22:00,
2013-09-23 11:27:00,84.6,69.6,29.83,NE,45,6.0,8.0,61,0.00,,,0.00,meteohub,2013-09-23 16:27:00,
2013-09-23 11:32:00,84.6,68.7,29.83,NE,45,6.0,8.0,59,0.00,,,0.00,meteohub,2013-09-23 16:32:00,
2013-09-23 11:37:00,84.4,68.5,29.83,SW,225,4.0,8.0,59,0.00,,,0.00,meteohub,2013-09-23 16:37:00,
2013-09-23 11:42:00,84.6,68.7,29.83,East,90,3.0,8.0,59,0.00,,,0.00,meteohub,2013-09-23 16:42:00,
2013-09-23 11:47:00,85.1,69.1,29.82,ESE,113,4.0,8.0,59,0.00,,,0.00,meteohub,2013-09-23 16:47:00,
2013-09-23 11:52:00,85.3,69.3,29.83,NE,45,4.0,7.0,59,0.00,,,0.00,meteohub,2013-09-23 16:52:00,
2013-09-23 11:57:00,85.1,68.7,29.83,East,90,7.0,8.0,58,0.00,,,0.00,meteohub,2013-09-23 16:57:00,
2013-09-23 12:02:00,85.1,69.1,29.83,North,0,2.0,8.0,59,0.00,,,0.00,meteohub,2013-09-23 17:02:00,
2013-09-23 12:07:00,85.1,69.1,29.83,North,0,2.0,8.0,59,0.00,,,0.00,meteohub,2013-09-23 17:07:00,
2013-09-23 12:12:00,86.5,70.0,29.82,NE,45,6.0,8.0,58,0.00,,,0.00,meteohub,2013-09-23 17:12:00,
2013-09-23 12:17:00,86.5,70.0,29.82,SE,135,4.0,9.0,58,0.00,,,0.00,meteohub,2013-09-23 17:17:00,
2013-09-23 12:22:00,87.3,70.7,29.82,ESE,113,6.0,9.0,58,0.00,,,0.00,meteohub,2013-09-23 17:22:00,
2013-09-23 12:27:00,87.3,70.2,29.82,East,90,5.0,9.0,57,0.00,,,0.00,meteohub,2013-09-23 17:27:00,
2013-09-23 12:37:00,87.6,70.0,29.81,ESE,113,9.0,10.0,56,0.00,,,0.00,meteohub,2013-09-23 17:37:00,
2013-09-23 12:42:00,88.0,70.3,29.81,WNW,293,4.0,10.0,56,0.00,,,0.00,meteohub,2013-09-23 17:42:00,
2013-09-23 12:47:00,87.6,70.0,29.82,SE,135,4.0,10.0,56,0.00,,,0.00,meteohub,2013-09-23 17:47:00,
2013-09-23 12:52:00,87.4,69.8,29.81,SSE,158,4.0,9.0,56,0.00,,,0.00,meteohub,2013-09-23 17:52:00,
2013-09-23 12:57:00,87.1,70.0,29.81,East,90,8.0,8.0,57,0.00,,,0.00,meteohub,2013-09-23 17:57:00,
2013-09-23 13:02:00,86.7,69.6,29.81,SE,135,8.0,8.0,57,0.00,,,0.00,meteohub,2013-09-23 18:02:00,
2013-09-23 13:07:00,86.7,69.6,29.81,SE,135,8.0,8.0,57,0.00,,,0.00,meteohub,2013-09-23 18:07:00,
2013-09-23 13:12:00,86.7,70.2,29.81,NE,45,2.0,8.0,58,0.00,,,0.00,meteohub,2013-09-23 18:12:00,
2013-09-23 13:17:00,86.9,70.3,29.81,South,180,5.0,8.0,58,0.00,,,0.00,meteohub,2013-09-23 18:17:00,
2013-09-23 13:22:00,86.9,70.3,29.81,SE,135,4.0,8.0,58,0.00,,,0.00,meteohub,2013-09-23 18:22:00,
2013-09-23 13:27:00,86.9,69.8,29.80,East,90,5.0,6.0,57,0.00,,,0.00,meteohub,2013-09-23 18:27:00,
2013-09-23 13:32:00,87.1,70.5,29.80,SW,225,4.0,6.0,58,0.00,,,0.00,meteohub,2013-09-23 18:32:00,
2013-09-23 13:42:00,87.8,70.7,29.79,East,90,5.0,7.0,57,0.00,,,0.00,meteohub,2013-09-23 18:42:00,
2013-09-23 13:47:00,87.8,70.2,29.79,East,90,6.0,7.0,56,0.00,,,0.00,meteohub,2013-09-23 18:47:00,
2013-09-23 13:52:00,88.3,70.7,29.79,North,0,4.0,8.0,56,0.00,,,0.00,meteohub,2013-09-23 18:52:00,
2013-09-23 13:57:00,88.5,70.9,29.79,East,90,2.0,8.0,56,0.00,,,0.00,meteohub,2013-09-23 18:57:00,
2013-09-23 14:02:00,88.9,71.1,29.79,East,90,3.0,6.0,56,0.00,,,0.00,meteohub,2013-09-23 19:02:00,
2013-09-23 14:07:00,88.9,71.1,29.79,East,90,3.0,5.0,56,0.00,,,0.00,meteohub,2013-09-23 19:07:00,
2013-09-23 14:12:00,89.4,70.5,29.78,SE,135,6.0,6.0,54,0.00,,,0.00,meteohub,2013-09-23 19:12:00,
2013-09-23 14:17:00,88.5,69.8,29.78,East,90,7.0,7.0,54,0.00,,,0.00,meteohub,2013-09-23 19:17:00,
2013-09-23 14:22:00,88.2,70.0,29.78,East,90,4.0,9.0,55,0.00,,,0.00,meteohub,2013-09-23 19:22:00,
2013-09-23 14:27:00,88.5,70.9,29.78,South,180,2.0,9.0,56,0.00,,,0.00,meteohub,2013-09-23 19:27:00,
2013-09-23 14:32:00,88.7,70.5,29.78,SE,135,4.0,7.0,55,0.00,,,0.00,meteohub,2013-09-23 19:32:00,
2013-09-23 14:37:00,88.3,70.2,29.79,East,90,7.0,8.0,55,0.00,,,0.00,meteohub,2013-09-23 19:37:00,
2013-09-23 14:42:00,88.0,69.8,29.78,SE,135,4.0,8.0,55,0.00,,,0.00,meteohub,2013-09-23 19:42:00,
2013-09-23 14:47:00,88.0,70.3,29.79,East,90,4.0,8.0,56,0.00,,,0.00,meteohub,2013-09-23 19:47:00,
2013-09-23 14:52:00,87.8,70.2,29.78,SE,135,3.0,9.0,56,0.00,,,0.00,meteohub,2013-09-23 19:52:00,
2013-09-23 14:57:00,87.8,70.2,29.78,NE,45,5.0,9.0,56,0.00,,,0.00,meteohub,2013-09-23 19:57:00,
2013-09-23 15:02:00,88.0,69.8,29.78,NE,45,8.0,9.0,55,0.00,,,0.00,meteohub,2013-09-23 20:02:00,
2013-09-23 15:07:00,88.0,69.8,29.78,NE,45,8.0,8.0,55,0.00,,,0.00,meteohub,2013-09-23 20:07:00,
2013-09-23 15:12:00,88.2,70.5,29.78,NE,45,3.0,8.0,56,0.00,,,0.00,meteohub,2013-09-23 20:12:00,
2013-09-23 15:17:00,88.5,70.9,29.78,SE,135,4.0,8.0,56,0.00,,,0.00,meteohub,2013-09-23 20:17:00,
2013-09-23 15:22:00,88.9,70.7,29.77,SE,135,4.0,8.0,55,0.00,,,0.00,meteohub,2013-09-23 20:22:00,
2013-09-23 15:27:00,89.1,70.7,29.77,ENE,68,3.0,5.0,55,0.00,,,0.00,meteohub,2013-09-23 20:27:00,
2013-09-23 15:32:00,89.2,70.3,29.77,ENE,68,6.0,6.0,54,0.00,,,0.00,meteohub,2013-09-23 20:32:00,
2013-09-23 15:37:00,88.9,70.7,29.77,East,90,4.0,8.0,55,0.00,,,0.00,meteohub,2013-09-23 20:37:00,
2013-09-23 15:42:00,88.5,70.3,29.77,East,90,3.0,9.0,55,0.00,,,0.00,meteohub,2013-09-23 20:42:00,
2013-09-23 15:47:00,88.3,70.2,29.77,NNE,23,5.0,9.0,55,0.00,,,0.00,meteohub,2013-09-23 20:47:00,
2013-09-23 15:52:00,88.2,70.5,29.77,East,90,5.0,9.0,56,0.00,,,0.00,meteohub,2013-09-23 20:52:00,
2013-09-23 15:57:00,88.0,70.3,29.77,SE,135,5.0,8.0,56,0.00,,,0.00,meteohub,2013-09-23 20:57:00,
2013-09-23 16:02:00,87.8,70.2,29.77,NE,45,2.0,10.0,56,0.00,,,0.00,meteohub,2013-09-23 21:02:00,
2013-09-23 16:07:00,87.8,70.2,29.77,NE,45,2.0,10.0,56,0.00,,,0.00,meteohub,2013-09-23 21:07:00,
2013-09-23 16:12:00,87.6,70.5,29.77,SE,135,4.0,10.0,57,0.00,,,0.00,meteohub,2013-09-23 21:12:00,
2013-09-23 16:22:00,87.6,71.1,29.77,North,0,4.0,8.0,58,0.00,,,0.00,meteohub,2013-09-23 21:22:00,
2013-09-23 16:32:00,87.3,70.7,29.78,NE,45,6.0,8.0,58,0.00,,,0.00,meteohub,2013-09-23 21:32:00,
2013-09-23 16:37:00,87.1,70.5,29.78,East,90,7.0,8.0,58,0.00,,,0.00,meteohub,2013-09-23 21:37:00,
2013-09-23 16:42:00,86.9,70.9,29.77,SE,135,2.0,8.0,59,0.00,,,0.00,meteohub,2013-09-23 21:42:00,
2013-09-23 16:47:00,86.9,70.9,29.77,SE,135,3.0,8.0,59,0.00,,,0.00,meteohub,2013-09-23 21:47:00,
2013-09-23 16:52:00,86.9,70.9,29.78,East,90,10.0,10.0,59,0.00,,,0.00,meteohub,2013-09-23 21:52:00,
2013-09-23 16:57:00,86.5,71.1,29.78,East,90,4.0,10.0,60,0.00,,,0.00,meteohub,2013-09-23 21:57:00,
2013-09-23 17:02:00,86.4,70.9,29.78,East,90,8.0,11.0,60,0.00,,,0.00,meteohub,2013-09-23 22:02:00,
2013-09-23 17:07:00,86.4,70.9,29.78,East,90,8.0,11.0,60,0.00,,,0.00,meteohub,2013-09-23 22:07:00,
2013-09-23 17:12:00,86.4,70.9,29.78,SE,135,5.0,11.0,60,0.00,,,0.00,meteohub,2013-09-23 22:12:00,
2013-09-23 17:17:00,86.2,71.1,29.78,East,90,4.0,8.0,61,0.00,,,0.00,meteohub,2013-09-23 22:17:00,
2013-09-23 17:22:00,86.4,71.2,29.78,East,90,4.0,8.0,61,0.00,,,0.00,meteohub,2013-09-23 22:22:00,
2013-09-23 17:27:00,86.2,71.1,29.78,East,90,8.0,11.0,61,0.00,,,0.00,meteohub,2013-09-23 22:27:00,
2013-09-23 17:32:00,86.0,71.4,29.78,North,0,6.0,11.0,62,0.00,,,0.00,meteohub,2013-09-23 22:32:00,
2013-09-23 17:37:00,85.8,71.8,29.78,SE,135,7.0,11.0,63,0.00,,,0.00,meteohub,2013-09-23 22:37:00,
2013-09-23 17:42:00,85.5,71.4,29.78,East,90,3.0,11.0,63,0.00,,,0.00,meteohub,2013-09-23 22:42:00,
2013-09-23 17:47:00,85.5,71.4,29.79,East,90,3.0,10.0,63,0.00,,,0.00,meteohub,2013-09-23 22:47:00,
2013-09-23 17:52:00,84.9,71.4,29.79,East,90,4.0,9.0,64,0.00,,,0.00,meteohub,2013-09-23 22:52:00,
2013-09-23 17:57:00,84.9,71.8,29.79,East,90,4.0,9.0,65,0.00,,,0.00,meteohub,2013-09-23 22:57:00,
2013-09-23 18:07:00,84.6,71.4,29.79,East,90,7.0,8.0,65,0.00,,,0.00,meteohub,2013-09-23 23:07:00,
2013-09-23 18:12:00,84.2,72.0,29.78,South,180,7.0,8.0,67,0.00,,,0.00,meteohub,2013-09-23 23:12:00,
2013-09-23 18:17:00,84.0,72.3,29.78,SW,225,4.0,10.0,68,0.00,,,0.00,meteohub,2013-09-23 23:17:00,
2013-09-23 18:22:00,84.0,72.7,29.79,ESE,113,11.0,11.0,69,0.00,,,0.00,meteohub,2013-09-23 23:22:00,
2013-09-23 18:27:00,83.8,72.1,29.79,SE,135,6.0,11.0,68,0.00,,,0.00,meteohub,2013-09-23 23:27:00,
2013-09-23 18:32:00,83.7,71.6,29.79,East,90,7.0,12.0,67,0.00,,,0.00,meteohub,2013-09-23 23:32:00,
2013-09-23 18:42:00,83.1,71.4,29.79,South,180,3.0,11.0,68,0.00,,,0.00,meteohub,2013-09-23 23:42:00,
2013-09-23 18:47:00,82.9,71.2,29.80,SE,135,3.0,11.0,68,0.00,,,0.00,meteohub,2013-09-23 23:47:00,
2013-09-23 18:57:00,82.6,71.4,29.80,East,90,4.0,6.0,69,0.00,,,0.00,meteohub,2013-09-23 23:57:00,
2013-09-23 19:07:00,82.2,71.1,29.80,NE,45,6.0,8.0,69,0.00,,,0.00,meteohub,2013-09-24 00:07:00,
2013-09-23 19:12:00,81.5,70.7,29.80,NE,45,8.0,8.0,70,0.00,,,0.00,meteohub,2013-09-24 00:12:00,
2013-09-23 19:17:00,81.3,70.5,29.79,NE,45,5.0,8.0,70,0.00,,,0.00,meteohub,2013-09-24 00:17:00,
2013-09-23 19:22:00,81.1,70.9,29.80,NE,45,4.0,8.0,71,0.00,,,0.00,meteohub,2013-09-24 00:22:00,
2013-09-23 19:27:00,81.0,71.1,29.80,East,90,4.0,8.0,72,0.00,,,0.00,meteohub,2013-09-24 00:27:00,
2013-09-23 19:32:00,81.0,71.4,29.80,East,90,4.0,8.0,73,0.00,,,0.00,meteohub,2013-09-24 00:32:00,
2013-09-23 19:42:00,80.8,71.8,29.80,East,90,2.0,7.0,74,0.00,,,0.00,meteohub,2013-09-24 00:42:00,
2013-09-23 19:47:00,80.6,72.0,29.80,North,0,4.0,6.0,75,0.00,,,0.00,meteohub,2013-09-24 00:47:00,
2013-09-23 19:52:00,80.6,72.0,29.80,East,90,4.0,6.0,75,0.00,,,0.00,meteohub,2013-09-24 00:52:00,
2013-09-23 20:02:00,80.4,72.1,29.81,East,90,4.0,6.0,76,0.00,,,0.00,meteohub,2013-09-24 01:02:00,
2013-09-23 20:07:00,80.4,72.1,29.81,East,90,4.0,6.0,76,0.00,,,0.00,meteohub,2013-09-24 01:07:00,
2013-09-23 20:12:00,80.4,72.5,29.81,East,90,4.0,6.0,77,0.00,,,0.00,meteohub,2013-09-24 01:12:00,
2013-09-23 20:17:00,80.6,73.0,29.81,North,0,2.0,5.0,78,0.00,,,0.00,meteohub,2013-09-24 01:17:00,
2013-09-23 20:32:00,80.4,72.9,29.82,North,0,2.0,7.0,78,0.00,,,0.00,meteohub,2013-09-24 01:32:00,
2013-09-23 20:37:00,80.4,73.2,29.82,East,90,2.0,7.0,79,0.00,,,0.00,meteohub,2013-09-24 01:37:00,
2013-09-23 20:42:00,80.4,73.2,29.82,East,90,2.0,4.0,79,0.00,,,0.00,meteohub,2013-09-24 01:42:00,
2013-09-23 20:47:00,80.4,73.2,29.82,NNW,338,3.0,4.0,79,0.00,,,0.00,meteohub,2013-09-24 01:47:00,
2013-09-23 20:57:00,80.6,73.9,29.82,NNW,338,2.0,7.0,80,0.00,,,0.00,meteohub,2013-09-24 01:57:00,
2013-09-23 21:07:00,80.4,73.8,29.82,NE,45,4.0,5.0,80,0.00,,,0.00,meteohub,2013-09-24 02:07:00,
2013-09-23 21:17:00,80.6,74.3,29.82,North,0,5.0,7.0,81,0.00,,,0.00,meteohub,2013-09-24 02:17:00,
2013-09-23 21:27:00,80.4,74.5,29.83,East,90,8.0,8.0,82,0.00,,,0.00,meteohub,2013-09-24 02:27:00,
2013-09-23 21:32:00,80.4,74.5,29.83,NE,45,2.0,8.0,82,0.00,,,0.00,meteohub,2013-09-24 02:32:00,
2013-09-23 21:37:00,80.4,74.5,29.82,East,90,4.0,8.0,82,0.00,,,0.00,meteohub,2013-09-24 02:37:00,
2013-09-23 21:42:00,80.4,74.5,29.83,East,90,5.0,8.0,82,0.00,,,0.00,meteohub,2013-09-24 02:42:00,
2013-09-23 21:47:00,80.4,74.5,29.83,East,90,2.0,5.0,82,0.00,,,0.00,meteohub,2013-09-24 02:47:00,
2013-09-23 21:52:00,80.4,74.5,29.83,SE,135,4.0,5.0,82,0.00,,,0.00,meteohub,2013-09-24 02:52:00,
2013-09-23 21:57:00,80.2,74.7,29.83,NE,45,4.0,6.0,83,0.00,,,0.00,meteohub,2013-09-24 02:57:00,
2013-09-23 22:02:00,80.2,74.7,29.83,East,90,2.0,6.0,83,0.00,,,0.00,meteohub,2013-09-24 03:02:00,
2013-09-23 22:12:00,80.2,75.0,29.83,SE,135,3.0,8.0,84,0.00,,,0.00,meteohub,2013-09-24 03:12:00,
2013-09-23 22:17:00,80.2,75.0,29.83,East,90,2.0,8.0,84,0.00,,,0.00,meteohub,2013-09-24 03:17:00,
2013-09-23 22:22:00,80.1,74.8,29.83,NNE,23,4.0,8.0,84,0.00,,,0.00,meteohub,2013-09-24 03:22:00,
2013-09-23 22:27:00,80.1,75.2,29.83,SE,135,2.0,6.0,85,0.00,,,0.00,meteohub,2013-09-24 03:27:00,
2013-09-23 22:32:00,80.1,75.2,29.84,SE,135,6.0,6.0,85,0.00,,,0.00,meteohub,2013-09-24 03:32:00,
2013-09-23 22:37:00,80.1,75.2,29.83,East,90,5.0,6.0,85,0.00,,,0.00,meteohub,2013-09-24 03:37:00,
2013-09-23 22:42:00,80.1,75.2,29.83,SE,135,2.0,6.0,85,0.00,,,0.00,meteohub,2013-09-24 03:42:00,
2013-09-23 22:47:00,79.9,75.0,29.83,ENE,68,3.0,6.0,85,0.00,,,0.00,meteohub,2013-09-24 03:47:00,
2013-09-23 22:52:00,79.9,75.0,29.84,NE,45,2.0,5.0,85,0.00,,,0.00,meteohub,2013-09-24 03:52:00,
2013-09-23 22:57:00,79.9,75.0,29.83,East,90,4.0,4.0,85,0.00,,,0.00,meteohub,2013-09-24 03:57:00,
2013-09-23 23:02:00,79.9,75.0,29.84,SE,135,2.0,4.0,85,0.00,,,0.00,meteohub,2013-09-24 04:02:00,
2013-09-23 23:07:00,79.9,75.0,29.84,SE,135,2.0,4.0,85,0.00,,,0.00,meteohub,2013-09-24 04:07:00,
2013-09-23 23:12:00,79.9,75.0,29.83,SE,135,3.0,4.0,85,0.00,,,0.00,meteohub,2013-09-24 04:12:00,
2013-09-23 23:17:00,79.7,74.8,29.83,NE,45,2.0,5.0,85,0.00,,,0.00,meteohub,2013-09-24 04:17:00,
2013-09-23 23:22:00,79.7,75.2,29.84,ESE,113,4.0,7.0,86,0.00,,,0.00,meteohub,2013-09-24 04:22:00,
2013-09-23 23:27:00,79.7,75.2,29.83,SE,135,2.0,7.0,86,0.00,,,0.00,meteohub,2013-09-24 04:27:00,
2013-09-23 23:32:00,79.7,75.2,29.83,SE,135,4.0,7.0,86,0.00,,,0.00,meteohub,2013-09-24 04:32:00,
2013-09-23 23:42:00,79.5,75.0,29.83,East,90,3.0,5.0,86,0.00,,,0.00,meteohub,2013-09-24 04:42:00,
2013-09-23 23:47:00,79.5,75.0,29.83,SE,135,2.0,5.0,86,0.00,,,0.00,meteohub,2013-09-24 04:47:00,
2013-09-23 23:52:00,79.3,74.8,29.83,SE,135,5.0,5.0,86,0.00,,,0.00,meteohub,2013-09-24 04:52:00,
2013-09-23 23:57:00,79.3,75.2,29.84,SE,135,2.0,5.0,87,0.00,,,0.00,meteohub,2013-09-24 04:57:00,